FW2918 Weather Reports


time (UTC)temp
F
wind
direction
speed
knots
gust
knots
rain 1hr
in
rain 24hr
in
rain mn
in
humidity
%
barometer
mb
20260506102950 56 102 4.3 9.6 0.00 0.00 0.00 46 1012.2
20260506102448 56 27 6.1 11.3 0.00 0.00 0.00 46 1012.0
20260506102211 56 331 4.3 11.3 0.00 0.00 0.00 47 1012.2
20260506101450 56 322 2.6 8.7 0.00 0.00 0.00 43 1012.3
20260506100947 56 55 6.1 12.2 0.00 0.00 0.00 44 1012.4
20260506100442 56 15 5.2 12.2 0.00 0.00 0.00 48 1012.4
20260506095942 56 333 3.5 8.7 0.00 0.00 0.00 48 1012.4
20260506095439 55 304 3.5 10.4 0.00 0.00 0.00 43 1012.4
20260506095419 55 77 4.3 10.4 0.00 0.00 0.00 43 1012.5
20260506094437 55 279 4.3 13.0 0.00 0.00 0.00 44 1012.5
20260506093936 54 82 4.3 13.0 0.00 0.00 0.00 44 1012.6
20260506093436 54 337 3.5 10.4 0.00 0.00 0.00 45 1012.6
20260506092936 55 19 3.5 10.4 0.00 0.00 0.00 46 1012.8
20260506092437 55 324 2.6 9.6 0.00 0.00 0.00 46 1012.8
20260506091932 55 330 2.6 9.6 0.00 0.00 0.00 44 1012.8
20260506091432 54 57 2.6 9.6 0.00 0.00 0.00 44 1013.0
20260506090931 54 23 4.3 10.4 0.00 0.00 0.00 48 1013.0
20260506090653 54 9 3.5 10.4 0.00 0.00 0.00 46 1013.0
20260506085931 53 342 2.6 8.7 0.00 0.00 0.00 48 1013.2
20260506085653 53 89 2.6 8.7 0.00 0.00 0.00 50 1013.0
20260506084931 53 321 2.6 7.8 0.00 0.00 0.00 47 1013.1
20260506084432 53 324 2.6 7.8 0.00 0.00 0.00 49 1013.0
20260506083930 53 323 2.6 8.7 0.00 0.00 0.00 49 1013.1
20260506083430 53 355 2.6 9.6 0.00 0.00 0.00 46 1013.2
20260506082942 53 57 1.7 9.6 0.00 0.00 0.00 48 1013.1
20260506082431 53 78 1.7 6.1 0.00 0.00 0.00 47 1013.1
20260506081929 53 81 2.6 7.0 0.00 0.00 0.00 45 1013.2
20260506081430 52 80 1.7 7.0 0.00 0.00 0.00 45 1013.2
20260506080930 52 80 2.6 7.8 0.00 0.00 0.00 52 1013.2
20260506080425 52 325 2.6 7.8 0.00 0.00 0.00 51 1013.4
20260506073417 51 19 2.6 8.7 0.00 0.00 0.00 54 1013.1
20260506072918 50 350 2.6 8.7 0.00 0.00 0.00 58 1013.2
20260506072859 51 326 1.7 4.3 0.00 0.00 0.00 56 1013.2
20260506071919 50 84 2.6 7.0 0.00 0.00 0.00 54 1013.2
20260506071644 49 350 2.6 7.0 0.00 0.00 0.00 56 1013.1
20260506070918 50 66 1.7 5.2 0.00 0.00 0.00 57 1013.2
20260506070419 50 72 1.7 5.2 0.00 0.00 0.00 54 1013.1
20260506062351 47 329 1.7 7.8 0.00 0.00 0.00 63 1013.0
20260506062332 48 327 1.7 3.5 0.00 0.00 0.00 63 1012.9
20260506061611 47 78 1.7 6.1 0.00 0.00 0.00 61 1012.9
20260506060904 48 67 1.7 6.1 0.00 0.00 0.00 64 1013.0
20260506060353 47 5 1.7 5.2 0.00 0.00 0.00 64 1013.1
20260506051341 45 96 0.9 3.5 0.00 0.00 0.00 73 1012.9
20260506050843 45 80 0.9 2.6 0.00 0.00 0.00 75 1012.8
20260506050340 44 75 0.0 2.6 0.00 0.00 0.00 77 1012.8
20260506044840 43 312 0.0 0.9 0.00 0.00 0.00 83 1012.6
20260506044337 42 313 0.0 0.9 0.00 0.00 0.00 86 1012.6
20260506043838 41 313 0.0 0.9 0.00 0.00 0.00 89 1012.7
20260506043337 40 312 0.0 1.7 0.00 0.00 0.00 91 1012.7
20260506042839 40 312 0.0 1.7 0.00 0.00 0.00 92 1012.7
20260506042337 39 313 0.0 1.7 0.00 0.00 0.00 93 1012.7
20260506041835 39 313 0.0 1.7 0.00 0.00 0.00 94 1012.6
20260506041334 38 312 0.0 1.7 0.00 0.00 0.00 95 1012.5
20260506040837 37 313 0.0 0.9 0.00 0.00 0.00 95 1012.6
20260506040333 36 313 0.0 0.9 0.00 0.00 0.00 96 1012.5
20260506035832 35 312 0.0 0.0 0.00 0.00 0.00 95 1012.6
20260506035333 35 312 0.0 0.0 0.00 0.00 0.00 95 1012.7
20260506035049 34 312 0.0 0.0 0.00 0.00 0.00 95 1012.5
20260506034554 34 312 0.0 0.0 0.00 0.00 0.00 95 1012.4
20260506034051 33 312 0.0 0.0 0.00 0.00 0.00 94 1012.4
20260506033321 34 312 0.0 0.0 0.00 0.00 0.00 95 1012.2
20260506032815 33 312 0.0 0.0 0.00 0.00 0.00 95 1012.1
20260506032310 33 312 0.0 0.0 0.00 0.00 0.00 95 1012.1
20260506031807 33 313 0.0 0.0 0.00 0.00 0.00 95 1012.1
20260506031308 31 313 0.0 0.0 0.00 0.00 0.00 94 1012.0
20260506030820 32 312 0.0 0.0 0.00 0.00 0.00 94 1012.0
20260506030309 32 313 0.0 0.0 0.00 0.00 0.00 94 1011.9
20260506025808 32 313 0.0 0.0 0.00 0.00 0.00 94 1012.0
20260506025532 31 312 0.0 0.0 0.00 0.00 0.00 94 1011.8
20260506024806 31 312 0.0 0.0 0.00 0.00 0.00 93 1011.8
20260506024303 31 312 0.0 0.0 0.00 0.00 0.00 93 1011.8
20260506023802 32 313 0.0 0.0 0.00 0.00 0.00 94 1011.6
20260506023259 31 312 0.0 0.0 0.00 0.00 0.00 94 1011.8
20260506023021 31 313 0.0 0.0 0.00 0.00 0.00 93 1011.7
20260506022519 32 313 0.0 0.0 0.00 0.00 0.00 93 1011.6
20260506021755 32 312 0.0 0.0 0.00 0.00 0.00 93 1011.6
20260506021739 33 313 0.0 0.0 0.00 0.00 0.00 93 1011.4
20260506020753 33 312 0.0 0.0 0.00 0.00 0.00 93 1011.5
20260506020253 33 313 0.0 0.9 0.00 0.00 0.00 93 1011.4
20260506015751 33 313 0.0 0.9 0.00 0.00 0.00 93 1011.4
20260506015511 33 313 0.0 0.0 0.00 0.00 0.00 92 1011.3
20260506014748 34 312 0.0 0.0 0.00 0.00 0.00 92 1011.4
20260506014249 33 312 0.0 0.0 0.00 0.00 0.00 92 1011.2
20260506013751 34 312 0.0 0.0 0.00 0.00 0.00 92 1011.4
20260506013249 33 312 0.0 0.0 0.00 0.00 0.00 92 1011.3
20260506012749 33 313 0.0 0.0 0.00 0.00 0.00 91 1011.5
20260506012248 34 313 0.0 0.0 0.00 0.00 0.00 91 1011.3
20260506012012 34 312 0.0 0.0 0.00 0.00 0.00 91 1011.4
20260506011247 35 313 0.0 0.0 0.00 0.00 0.00 90 1011.1
20260506011010 35 312 0.0 0.0 0.00 0.00 0.00 90 1011.1
20260506010512 35 313 0.0 0.0 0.00 0.00 0.00 90 1011.0
20260506005747 35 312 0.0 0.0 0.00 0.00 0.00 90 1011.0
20260506005249 35 312 0.0 0.0 0.00 0.00 0.00 90 1010.9
20260506004747 34 312 0.0 0.0 0.00 0.00 0.00 90 1010.9
20260506004513 33 313 0.0 0.0 0.00 0.00 0.00 89 1010.9
20260506003749 34 313 0.0 0.0 0.00 0.00 0.00 87 1010.8
20260506003246 36 312 0.0 0.0 0.00 0.00 0.00 87 1010.7
20260506002744 37 313 0.0 0.0 0.00 0.00 0.00 88 1010.6
20260506002242 37 312 0.0 0.0 0.00 0.00 0.00 89 1010.6
20260506002230 36 312 0.0 0.0 0.00 0.00 0.00 87 1010.7
20260506001241 36 312 0.0 0.0 0.00 0.00 0.00 87 1010.7
20260506000739 36 313 0.0 0.0 0.00 0.00 0.00 85 1010.7
20260506000240 37 313 0.0 0.0 0.00 0.00 0.00 85 1010.5
20260505235740 38 312 0.0 0.0 0.00 0.00 0.00 84 1010.5
20260505235232 38 312 0.0 0.0 0.00 0.00 0.00 84 1010.4
20260505234733 38 312 0.0 0.0 0.00 0.00 0.00 84 1010.6
20260505234230 38 313 0.0 0.0 0.00 0.00 0.00 83 1010.4
20260505233731 38 313 0.9 1.7 0.00 0.00 0.00 82 1010.5
20260505233226 38 313 0.9 1.7 0.00 0.00 0.00 82 1010.4
20260505232727 39 313 0.9 1.7 0.00 0.00 0.00 82 1010.5
20260505232228 39 312 0.9 2.6 0.00 0.00 0.00 80 1010.4
20260505231728 39 312 0.9 2.6 0.00 0.00 0.00 81 1010.4
20260505231227 39 312 1.7 2.6 0.00 0.00 0.00 80 1010.4
20260505230727 39 312 1.7 2.6 0.00 0.00 0.00 80 1010.4
20260505230236 39 312 1.7 2.6 0.00 0.00 0.00 79 1010.5
20260505225723 40 312 2.6 3.5 0.00 0.00 0.00 79 1010.5
20260505225224 40 312 2.6 3.5 0.00 0.00 0.00 78 1010.5
20260505224723 40 312 1.7 3.5 0.00 0.00 0.00 78 1010.4
20260505224223 40 311 1.7 2.6 0.00 0.00 0.00 77 1010.3
20260505223722 40 311 1.7 2.6 0.00 0.00 0.00 77 1010.5
20260505223222 40 311 1.7 2.6 0.00 0.00 0.00 76 1010.4
20260505222720 40 311 1.7 3.5 0.00 0.00 0.00 76 1010.4
20260505222221 40 313 1.7 3.5 0.00 0.00 0.00 76 1010.2
20260505221720 41 310 2.6 7.0 0.00 0.00 0.00 76 1010.3
20260505221221 41 321 3.5 7.0 0.00 0.00 0.00 76 1010.2
20260505220718 41 325 2.6 6.1 0.00 0.00 0.00 76 1010.3
20260505220219 41 319 3.5 6.1 0.00 0.00 0.00 76 1010.3
20260505215721 42 296 2.6 4.3 0.00 0.00 0.00 76 1010.2
20260505215220 42 289 2.6 4.3 0.00 0.00 0.00 76 1010.3
20260505214719 42 302 2.6 4.3 0.00 0.00 0.00 76 1010.4
20260505214220 42 298 2.6 4.3 0.00 0.00 0.00 76 1010.3
20260505213732 42 300 1.7 4.3 0.00 0.00 0.00 75 1010.4
20260505213218 42 300 1.7 3.5 0.00 0.00 0.00 74 1010.2
20260505212719 42 300 1.7 3.5 0.00 0.00 0.00 73 1010.0
20260505212217 42 300 1.7 3.5 0.00 0.00 0.00 73 1010.1
20260505211718 42 300 0.9 2.6 0.00 0.00 0.00 72 1010.1
20260505211216 42 300 0.9 2.6 0.00 0.00 0.00 71 1010.1
20260505210716 43 300 0.0 2.6 0.00 0.00 0.00 72 1009.9
20260505210216 42 300 0.0 0.0 0.00 0.00 0.00 72 1010.0
20260505205940 42 300 0.0 0.0 0.00 0.00 0.00 71 1009.9
20260505205213 42 300 0.0 0.0 0.00 0.00 0.00 70 1009.8
20260505204712 42 300 0.0 1.7 0.00 0.00 0.00 70 1009.8
20260505204213 42 300 0.0 1.7 0.00 0.00 0.00 71 1009.8
20260505203714 42 300 0.9 1.7 0.00 0.00 0.00 70 1009.6
20260505203212 42 300 0.9 1.7 0.00 0.00 0.00 69 1009.6
20260505202713 43 300 1.7 2.6 0.00 0.00 0.00 68 1009.6
20260505202213 43 300 1.7 3.5 0.00 0.00 0.00 68 1009.5
20260505201713 43 300 2.6 3.5 0.00 0.00 0.00 67 1009.3
20260505201211 43 300 2.6 3.5 0.00 0.00 0.00 67 1009.3
20260505200711 44 307 1.7 2.6 0.00 0.00 0.00 66 1009.1
20260505200212 44 307 1.7 2.6 0.00 0.00 0.00 66 1009.1
20260505195929 44 307 0.9 2.6 0.00 0.00 0.00 65 1009.1
20260505195212 44 307 1.7 3.5 0.00 0.00 0.00 67 1009.1
20260505194711 44 307 2.6 4.3 0.00 0.00 0.00 67 1009.0
20260505194211 44 307 2.6 4.3 0.00 0.00 0.00 66 1009.1
20260505193710 44 307 2.6 6.1 0.00 0.00 0.00 65 1009.1
20260505193649 44 304 2.6 6.1 0.00 0.00 0.00 65 1009.0
20260505192708 44 306 2.6 4.3 0.00 0.00 0.00 65 1009.1
20260505192209 45 306 1.7 3.5 0.00 0.00 0.00 66 1009.1
20260505191708 45 306 1.7 3.5 0.00 0.00 0.00 64 1009.0
20260505191645 45 306 1.7 2.6 0.00 0.00 0.00 65 1008.9
20260505190707 45 306 1.7 3.5 0.00 0.00 0.00 65 1009.1
20260505190218 45 306 2.6 6.1 0.00 0.00 0.00 65 1009.1
20260505185703 46 304 2.6 6.1 0.00 0.00 0.00 64 1009.1
20260505185204 46 309 3.5 4.3 0.00 0.00 0.00 63 1009.1
20260505184920 46 306 3.5 7.0 0.00 0.00 0.00 63 1009.0
20260505184201 47 306 5.2 9.6 0.00 0.00 0.00 62 1009.1
20260505184146 47 321 5.2 9.6 0.00 0.00 0.00 62 1008.9
20260505183201 47 305 4.3 8.7 0.00 0.00 0.00 61 1009.1
20260505182925 47 298 6.1 10.4 0.00 0.00 0.00 61 1008.9
20260505182152 47 337 5.2 10.4 0.00 0.00 0.00 61 1008.9
20260505181646 48 304 6.1 10.4 0.00 0.00 0.00 61 1008.9
20260505181142 48 274 7.0 11.3 0.00 0.00 0.00 60 1008.8
20260505180635 48 317 7.8 14.8 0.00 0.00 0.00 59 1008.7
20260505180129 49 331 8.7 14.8 0.00 0.00 0.00 58 1008.6
20260505175622 49 311 8.7 16.5 0.00 0.00 0.00 59 1008.5
20260505175118 49 317 8.7 16.5 0.00 0.00 0.00 58 1008.6
20260505174611 49 315 7.8 13.0 0.00 0.00 0.00 59 1008.5
20260505174105 49 328 7.8 13.9 0.00 0.00 0.00 60 1008.5
20260505173600 50 313 8.7 13.9 0.00 0.00 0.00 60 1008.5
20260505173314 50 319 9.6 15.6 0.00 0.00 0.00 60 1008.2
20260505172546 50 313 10.4 17.4 0.00 0.00 0.00 61 1008.3
20260505172040 50 350 10.4 17.4 0.00 0.00 0.00 61 1008.3
20260505171535 50 318 10.4 14.8 0.00 0.00 0.00 61 1008.3
20260505171030 50 311 8.7 14.8 0.00 0.00 0.00 63 1008.3
20260505170525 50 292 7.0 12.2 0.00 0.00 0.00 64 1008.4
20260505170017 51 290 7.8 12.2 0.00 0.00 0.00 64 1008.3
20260505165510 51 301 7.8 12.2 0.00 0.00 0.00 64 1008.3
20260505165004 51 311 7.8 12.2 0.00 0.00 0.00 65 1008.3
20260505164724 51 309 7.8 13.0 0.00 0.00 0.00 65 1008.3
20260505163953 51 329 7.8 13.0 0.00 0.00 0.00 65 1008.1
20260505163448 51 306 7.8 13.9 0.00 0.00 0.00 66 1008.1
20260505162941 51 325 7.8 13.9 0.00 0.00 0.00 65 1008.1
20260505162434 52 309 7.0 11.3 0.00 0.00 0.00 66 1008.1
20260505161942 52 294 7.8 11.3 0.00 0.00 0.00 65 1008.0
20260505161424 52 292 8.7 13.9 0.00 0.00 0.00 66 1008.0
20260505160917 52 304 9.6 13.9 0.00 0.00 0.00 64 1008.2
20260505153335 55 298 10.4 14.8 0.00 0.00 0.00 65 1007.6
20260505152828 56 307 10.4 13.9 0.00 0.00 0.00 64 1007.5
20260505152324 56 302 9.6 13.9 0.00 0.00 0.00 65 1007.5
20260505151831 56 300 9.6 13.0 0.00 0.00 0.00 66 1007.6
20260505151534 56 295 9.6 13.0 0.00 0.00 0.00 65 1007.4
20260505150805 57 286 9.6 13.9 0.00 0.00 0.00 63 1007.4
20260505150258 57 285 10.4 13.9 0.00 0.00 0.00 61 1007.2
20260505140146 64 291 10.4 18.2 0.00 0.00 0.00 52 1006.9
20260505130132 67 287 7.0 13.9 0.00 0.01 0.00 43 1006.7
20260505124143 64 215 9.6 16.5 0.00 0.01 0.00 46 1006.9
20260505123631 66 213 9.6 16.5 0.00 0.01 0.00 44 1006.9
20260505123130 67 220 7.0 13.0 0.00 0.01 0.00 46 1006.9
20260505122849 66 209 6.1 14.8 0.00 0.01 0.00 47 1006.8
20260505122131 65 257 7.0 14.8 0.00 0.01 0.00 46 1006.8
20260505121630 65 244 7.8 15.6 0.00 0.01 0.00 47 1006.9
20260505121124 66 218 8.7 15.6 0.00 0.01 0.00 44 1006.9
20260505120620 67 216 9.6 16.5 0.00 0.01 0.00 46 1006.7
20260505120345 66 215 8.7 16.5 0.00 0.01 0.00 46 1006.7
20260505115606 67 188 7.0 13.0 0.00 0.01 0.00 47 1006.9
20260505115101 66 273 7.0 12.2 0.00 0.01 0.00 48 1007.0
20260505114555 64 193 8.7 16.5 0.00 0.01 0.00 51 1006.9
20260505114048 65 197 7.0 16.5 0.00 0.01 0.00 47 1007.0
20260505113543 67 215 6.1 15.6 0.00 0.01 0.00 48 1007.0
20260505113036 65 266 7.8 13.0 0.00 0.01 0.00 48 1006.9
20260505112530 66 219 9.6 18.2 0.00 0.01 0.00 48 1007.0
20260505112243 66 211 8.7 18.2 0.00 0.01 0.00 48 1006.8
20260505111517 66 184 7.0 13.9 0.00 0.01 0.00 49 1006.9
20260505111011 66 175 7.0 16.5 0.00 0.01 0.00 50 1006.8
20260505110506 65 190 7.8 16.5 0.00 0.01 0.00 52 1006.8